| time (UTC) | temp F | wind direction | speed MPH | gust MPH | rain 1hr in | rain 24hr in | rain mn in | humidity % | barometer mb |
| 20260506013536 | 51 | 306 | 10.0 | 16.0 | 0.00 | 0.00 | 0.00 | 55 | 1013.4 |
| 20260506013040 | 51 | 292 | 10.0 | 19.0 | 0.00 | 0.00 | 0.00 | 54 | 1013.3 |
| 20260506012538 | 52 | 288 | 12.0 | 19.0 | 0.00 | 0.00 | 0.00 | 53 | 1013.2 |
| 20260506012039 | 53 | 300 | 15.0 | 22.0 | 0.00 | 0.00 | 0.00 | 51 | 1013.0 |
| 20260506011537 | 53 | 290 | 13.0 | 22.0 | 0.00 | 0.00 | 0.00 | 51 | 1013.2 |
| 20260506011040 | 53 | 306 | 15.0 | 21.0 | 0.00 | 0.00 | 0.00 | 48 | 1013.4 |
| 20260506010538 | 53 | 300 | 12.0 | 20.0 | 0.00 | 0.00 | 0.00 | 48 | 1013.0 |
| 20260506010055 | 53 | 281 | 10.0 | 14.0 | 0.00 | 0.00 | 0.00 | 51 | 1012.8 |
| 20260506005537 | 54 | 273 | 10.0 | 14.0 | 0.00 | 0.00 | 0.00 | 51 | 1012.8 |
| 20260506005041 | 54 | 276 | 10.0 | 14.0 | 0.00 | 0.00 | 0.00 | 50 | 1012.6 |
| 20260506004552 | 54 | 278 | 8.0 | 16.0 | 0.00 | 0.00 | 0.00 | 50 | 1012.8 |
| 20260506004038 | 54 | 276 | 11.0 | 19.0 | 0.00 | 0.00 | 0.00 | 49 | 1012.9 |
| 20260506003538 | 55 | 277 | 12.0 | 19.0 | 0.00 | 0.00 | 0.00 | 47 | 1012.9 |
| 20260506003050 | 55 | 258 | 12.0 | 20.0 | 0.00 | 0.00 | 0.00 | 47 | 1012.9 |
| 20260506002538 | 56 | 282 | 12.0 | 20.0 | 0.00 | 0.00 | 0.00 | 46 | 1012.5 |
| 20260506002038 | 56 | 276 | 14.0 | 23.0 | 0.00 | 0.00 | 0.00 | 45 | 1012.7 |
| 20260506001553 | 57 | 281 | 14.0 | 23.0 | 0.00 | 0.00 | 0.00 | 44 | 1012.8 |
| 20260506001038 | 58 | 277 | 13.0 | 21.0 | 0.00 | 0.00 | 0.00 | 42 | 1012.8 |
| 20260506000539 | 58 | 269 | 15.0 | 21.0 | 0.00 | 0.00 | 0.00 | 41 | 1012.8 |
| 20260506000052 | 58 | 281 | 12.0 | 21.0 | 0.00 | 0.00 | 0.00 | 43 | 1012.7 |
| 20260505235541 | 58 | 262 | 15.0 | 22.0 | 0.00 | 0.00 | 0.00 | 43 | 1012.8 |
| 20260505235038 | 58 | 267 | 15.0 | 22.0 | 0.00 | 0.00 | 0.00 | 42 | 1012.7 |
| 20260505234602 | 58 | 253 | 16.0 | 22.0 | 0.00 | 0.00 | 0.00 | 41 | 1012.8 |
| 20260505234042 | 58 | 235 | 15.0 | 20.0 | 0.00 | 0.00 | 0.00 | 41 | 1012.7 |
| 20260505233541 | 58 | 245 | 10.0 | 18.0 | 0.00 | 0.00 | 0.00 | 43 | 1012.8 |
| 20260505233047 | 57 | 257 | 10.0 | 16.0 | 0.00 | 0.00 | 0.00 | 47 | 1012.9 |
| 20260505232538 | 58 | 257 | 13.0 | 15.0 | 0.00 | 0.00 | 0.00 | 46 | 1012.9 |
| 20260505232040 | 58 | 283 | 11.0 | 17.0 | 0.00 | 0.00 | 0.00 | 44 | 1013.0 |
| 20260505231549 | 57 | 292 | 13.0 | 17.0 | 0.00 | 0.00 | 0.00 | 44 | 1013.0 |
| 20260505231038 | 56 | 263 | 10.0 | 17.0 | 0.00 | 0.00 | 0.00 | 50 | 1012.9 |
| 20260505230538 | 56 | 247 | 11.0 | 17.0 | 0.00 | 0.00 | 0.00 | 49 | 1012.8 |
| 20260505230047 | 57 | 246 | 11.0 | 15.0 | 0.00 | 0.00 | 0.00 | 49 | 1012.8 |
| 20260505225538 | 56 | 265 | 10.0 | 15.0 | 0.00 | 0.00 | 0.00 | 51 | 1012.7 |
| 20260505225039 | 56 | 268 | 10.0 | 17.0 | 0.00 | 0.00 | 0.00 | 51 | 1012.9 |
| 20260505224548 | 56 | 275 | 12.0 | 20.0 | 0.00 | 0.00 | 0.00 | 51 | 1012.8 |
| 20260505224040 | 55 | 271 | 14.0 | 24.0 | 0.00 | 0.00 | 0.00 | 52 | 1013.0 |
| 20260505223537 | 55 | 278 | 17.0 | 32.0 | 0.00 | 0.00 | 0.00 | 52 | 1013.3 |
| 20260505223044 | 56 | 277 | 21.0 | 32.0 | 0.00 | 0.00 | 0.00 | 49 | 1013.4 |
| 20260505222545 | 57 | 268 | 21.0 | 29.0 | 0.00 | 0.00 | 0.00 | 48 | 1013.4 |
| 20260505222038 | 57 | 265 | 16.0 | 25.0 | 0.00 | 0.00 | 0.00 | 49 | 1013.4 |
| 20260505221547 | 57 | 292 | 18.0 | 25.0 | 0.00 | 0.00 | 0.00 | 47 | 1013.3 |
| 20260505221038 | 57 | 276 | 17.0 | 25.0 | 0.00 | 0.00 | 0.00 | 46 | 1013.5 |
| 20260505220542 | 57 | 276 | 15.0 | 22.0 | 0.00 | 0.00 | 0.00 | 48 | 1013.4 |
| 20260505220051 | 56 | 248 | 13.0 | 21.0 | 0.00 | 0.00 | 0.00 | 51 | 1013.4 |
| 20260505215538 | 56 | 304 | 8.0 | 20.0 | 0.00 | 0.00 | 0.00 | 51 | 1013.3 |
| 20260505215042 | 56 | 282 | 8.0 | 13.0 | 0.00 | 0.00 | 0.00 | 52 | 1013.4 |
| 20260505214604 | 56 | 305 | 7.0 | 12.0 | 0.00 | 0.00 | 0.00 | 52 | 1013.3 |
| 20260505214038 | 55 | 288 | 3.0 | 11.0 | 0.00 | 0.00 | 0.00 | 53 | 1013.4 |
| 20260505213541 | 55 | 321 | 5.0 | 13.0 | 0.00 | 0.00 | 0.00 | 54 | 1013.4 |
| 20260505213056 | 56 | 279 | 8.0 | 13.0 | 0.00 | 0.00 | 0.00 | 53 | 1013.6 |
| 20260505212542 | 56 | 291 | 5.0 | 16.0 | 0.00 | 0.00 | 0.00 | 54 | 1013.6 |
| 20260505212042 | 56 | 280 | 9.0 | 19.0 | 0.00 | 0.00 | 0.00 | 54 | 1013.6 |
| 20260505211549 | 56 | 300 | 11.0 | 20.0 | 0.00 | 0.00 | 0.00 | 53 | 1013.7 |
| 20260505211038 | 56 | 247 | 12.0 | 20.0 | 0.00 | 0.00 | 0.00 | 53 | 1013.8 |
| 20260505210540 | 55 | 217 | 9.0 | 13.0 | 0.00 | 0.00 | 0.00 | 56 | 1013.7 |
| 20260505210057 | 55 | 238 | 7.0 | 14.0 | 0.00 | 0.00 | 0.00 | 55 | 1013.7 |
| 20260505205542 | 56 | 276 | 9.0 | 14.0 | 0.00 | 0.00 | 0.00 | 55 | 1013.8 |
| 20260505205040 | 55 | 302 | 7.0 | 14.0 | 0.00 | 0.00 | 0.00 | 56 | 1013.9 |
| 20260505204558 | 55 | 284 | 8.0 | 14.0 | 0.00 | 0.00 | 0.00 | 56 | 1014.1 |
| 20260505204038 | 55 | 292 | 10.0 | 14.0 | 0.00 | 0.00 | 0.00 | 55 | 1014.2 |
| 20260505203538 | 56 | 268 | 9.0 | 14.0 | 0.00 | 0.00 | 0.00 | 54 | 1014.2 |
| 20260505203052 | 56 | 252 | 10.0 | 17.0 | 0.00 | 0.00 | 0.00 | 55 | 1014.3 |
| 20260505202537 | 55 | 262 | 9.0 | 17.0 | 0.00 | 0.00 | 0.00 | 55 | 1014.3 |
| 20260505202038 | 56 | 290 | 11.0 | 16.0 | 0.00 | 0.00 | 0.00 | 54 | 1014.2 |
| 20260505201554 | 56 | 290 | 12.0 | 20.0 | 0.00 | 0.00 | 0.00 | 53 | 1014.1 |
| 20260505201042 | 57 | 294 | 13.0 | 20.0 | 0.00 | 0.00 | 0.00 | 54 | 1014.1 |
| 20260505200538 | 57 | 295 | 12.0 | 21.0 | 0.00 | 0.00 | 0.00 | 54 | 1014.1 |
| 20260505200058 | 56 | 250 | 13.0 | 21.0 | 0.00 | 0.00 | 0.00 | 53 | 1014.1 |
| 20260505195538 | 57 | 271 | 13.0 | 21.0 | 0.00 | 0.00 | 0.00 | 54 | 1014.1 |
| 20260505195037 | 56 | 246 | 13.0 | 19.0 | 0.00 | 0.00 | 0.00 | 58 | 1014.1 |
| 20260505194554 | 55 | 287 | 11.0 | 19.0 | 0.00 | 0.00 | 0.00 | 59 | 1014.1 |
| 20260505194042 | 56 | 292 | 10.0 | 19.0 | 0.00 | 0.00 | 0.00 | 60 | 1014.3 |
| 20260505193539 | 56 | 302 | 10.0 | 16.0 | 0.00 | 0.00 | 0.00 | 66 | 1014.3 |
| 20260505193053 | 53 | 301 | 12.0 | 17.0 | 0.00 | 0.00 | 0.00 | 70 | 1014.3 |
| 20260505192538 | 52 | 275 | 14.0 | 22.0 | 0.00 | 0.00 | 0.00 | 72 | 1014.3 |
| 20260505192038 | 50 | 257 | 14.0 | 23.0 | 0.00 | 0.00 | 0.00 | 75 | 1014.3 |
| 20260505191556 | 52 | 261 | 18.0 | 27.0 | 0.00 | 0.00 | 0.00 | 72 | 1014.4 |
| 20260505191038 | 53 | 263 | 17.0 | 27.0 | 0.00 | 0.00 | 0.00 | 63 | 1014.2 |
| 20260505190538 | 55 | 270 | 13.0 | 21.0 | 0.00 | 0.00 | 0.00 | 55 | 1014.2 |
| 20260505190049 | 57 | 280 | 15.0 | 22.0 | 0.00 | 0.00 | 0.00 | 53 | 1014.1 |
| 20260505185539 | 57 | 250 | 16.0 | 22.0 | 0.00 | 0.00 | 0.00 | 49 | 1014.1 |
| 20260505185038 | 57 | 276 | 11.0 | 17.0 | 0.00 | 0.00 | 0.00 | 49 | 1014.1 |
| 20260505184551 | 58 | 238 | 11.0 | 17.0 | 0.00 | 0.00 | 0.00 | 48 | 1014.0 |
| 20260505184042 | 58 | 228 | 13.0 | 17.0 | 0.00 | 0.00 | 0.00 | 47 | 1014.1 |
| 20260505183538 | 58 | 213 | 10.0 | 13.0 | 0.00 | 0.00 | 0.00 | 49 | 1014.0 |
| 20260505183055 | 56 | 269 | 9.0 | 14.0 | 0.00 | 0.00 | 0.00 | 51 | 1014.2 |
| 20260505182537 | 56 | 192 | 8.0 | 14.0 | 0.00 | 0.00 | 0.00 | 52 | 1014.3 |
| 20260505182040 | 56 | 225 | 9.0 | 14.0 | 0.00 | 0.00 | 0.00 | 51 | 1014.3 |
| 20260505181549 | 54 | 201 | 2.0 | 8.0 | 0.00 | 0.00 | 0.00 | 52 | 1014.5 |
| 20260505181045 | 54 | 193 | 2.0 | 8.0 | 0.00 | 0.00 | 0.00 | 52 | 1014.5 |
| 20260505180541 | 53 | 207 | 3.0 | 10.0 | 0.00 | 0.00 | 0.00 | 51 | 1014.6 |
| 20260505180105 | 54 | 0 | 2.0 | 10.0 | 0.00 | 0.00 | 0.00 | 52 | 1014.5 |
| 20260505175538 | 54 | 256 | 4.0 | 7.0 | 0.00 | 0.00 | 0.00 | 51 | 1014.5 |
| 20260505175038 | 55 | 311 | 4.0 | 8.0 | 0.00 | 0.00 | 0.00 | 50 | 1014.7 |
| 20260505174601 | 54 | 0 | 2.0 | 8.0 | 0.00 | 0.00 | 0.00 | 51 | 1014.9 |
| 20260505174038 | 54 | 250 | 4.0 | 12.0 | 0.00 | 0.00 | 0.00 | 50 | 1015.1 |
| 20260505173538 | 55 | 240 | 4.0 | 12.0 | 0.00 | 0.00 | 0.00 | 48 | 1015.1 |
| 20260505173049 | 56 | 268 | 4.0 | 14.0 | 0.00 | 0.00 | 0.00 | 49 | 1015.0 |
| 20260505172537 | 55 | 223 | 9.0 | 14.0 | 0.00 | 0.00 | 0.00 | 49 | 1015.1 |
| 20260505172038 | 55 | 242 | 4.0 | 9.0 | 0.00 | 0.00 | 0.00 | 50 | 1015.3 |
| 20260505171547 | 54 | 221 | 4.0 | 12.0 | 0.00 | 0.00 | 0.00 | 51 | 1015.1 |
| 20260505171041 | 54 | 216 | 7.0 | 12.0 | 0.00 | 0.00 | 0.00 | 50 | 1014.9 |
| 20260505170538 | 54 | 192 | 4.0 | 8.0 | 0.00 | 0.00 | 0.00 | 51 | 1014.9 |
| 20260505170053 | 53 | 72 | 2.0 | 10.0 | 0.00 | 0.00 | 0.00 | 52 | 1015.0 |
| 20260505165538 | 54 | 207 | 4.0 | 10.0 | 0.00 | 0.00 | 0.00 | 50 | 1014.9 |
| 20260505165041 | 53 | 299 | 2.0 | 8.0 | 0.00 | 0.00 | 0.00 | 52 | 1014.8 |
| 20260505164550 | 53 | 315 | 3.0 | 9.0 | 0.00 | 0.00 | 0.00 | 51 | 1014.9 |
| 20260505164038 | 53 | 335 | 4.0 | 9.0 | 0.00 | 0.00 | 0.00 | 51 | 1015.1 |
| 20260505163538 | 52 | 345 | 2.0 | 8.0 | 0.00 | 0.00 | 0.00 | 53 | 1015.3 |
| 20260505163053 | 52 | 309 | 4.0 | 14.0 | 0.00 | 0.00 | 0.00 | 52 | 1015.3 |
| 20260505162538 | 52 | 307 | 6.0 | 14.0 | 0.00 | 0.00 | 0.00 | 52 | 1015.4 |
| 20260505162038 | 52 | 319 | 4.0 | 11.0 | 0.00 | 0.00 | 0.00 | 51 | 1015.4 |
| 20260505161558 | 52 | 333 | 6.0 | 13.0 | 0.00 | 0.00 | 0.00 | 51 | 1015.4 |
| 20260505161038 | 52 | 351 | 10.0 | 15.0 | 0.00 | 0.00 | 0.00 | 52 | 1015.3 |
| 20260505160538 | 52 | 343 | 10.0 | 15.0 | 0.00 | 0.00 | 0.00 | 52 | 1015.4 |
| 20260505153049 | 52 | 327 | 12.0 | 16.0 | 0.00 | 0.00 | 0.00 | 52 | 1015.2 |
| 20260505152538 | 52 | 326 | 12.0 | 16.0 | 0.00 | 0.00 | 0.00 | 52 | 1015.4 |
| 20260505152038 | 51 | 324 | 10.0 | 16.0 | 0.00 | 0.00 | 0.00 | 53 | 1015.6 |
| 20260505151548 | 51 | 326 | 9.0 | 14.0 | 0.00 | 0.00 | 0.00 | 53 | 1015.6 |
| 20260505151039 | 51 | 333 | 10.0 | 14.0 | 0.00 | 0.00 | 0.00 | 53 | 1015.6 |
| 20260505150538 | 51 | 333 | 10.0 | 14.0 | 0.00 | 0.00 | 0.00 | 53 | 1015.6 |
| 20260505140538 | 52 | 346 | 14.0 | 18.0 | 0.00 | 0.00 | 0.00 | 47 | 1015.5 |
| 20260505125040 | 51 | 282 | 10.0 | 12.0 | 0.00 | 0.00 | 0.00 | 44 | 1014.9 |
| 20260505124550 | 51 | 288 | 8.0 | 12.0 | 0.00 | 0.00 | 0.00 | 44 | 1014.9 |
| 20260505124040 | 51 | 286 | 8.0 | 11.0 | 0.00 | 0.00 | 0.00 | 43 | 1015.0 |
| 20260505123537 | 50 | 298 | 9.0 | 11.0 | 0.00 | 0.00 | 0.00 | 43 | 1015.1 |
| 20260505123100 | 50 | 275 | 7.0 | 10.0 | 0.00 | 0.00 | 0.00 | 43 | 1015.1 |
| 20260505122539 | 50 | 273 | 7.0 | 14.0 | 0.00 | 0.00 | 0.00 | 42 | 1015.2 |
| 20260505122040 | 51 | 279 | 8.0 | 14.0 | 0.00 | 0.00 | 0.00 | 41 | 1015.1 |
| 20260505121548 | 51 | 267 | 10.0 | 14.0 | 0.00 | 0.00 | 0.00 | 41 | 1014.7 |
| 20260505121039 | 52 | 255 | 10.0 | 14.0 | 0.00 | 0.00 | 0.00 | 40 | 1014.9 |
| 20260505120538 | 52 | 252 | 12.0 | 14.0 | 0.00 | 0.00 | 0.00 | 39 | 1014.7 |
| 20260505120050 | 52 | 260 | 11.0 | 14.0 | 0.00 | 0.00 | 0.00 | 39 | 1014.5 |
| 20260505115538 | 52 | 258 | 10.0 | 12.0 | 0.00 | 0.00 | 0.00 | 39 | 1014.6 |
| 20260505115039 | 52 | 253 | 10.0 | 13.0 | 0.00 | 0.00 | 0.00 | 39 | 1014.5 |
| 20260505114550 | 52 | 264 | 10.0 | 14.0 | 0.00 | 0.00 | 0.00 | 39 | 1014.5 |
| 20260505114039 | 52 | 259 | 9.0 | 14.0 | 0.00 | 0.00 | 0.00 | 39 | 1014.4 |
| 20260505113542 | 52 | 252 | 9.0 | 12.0 | 0.00 | 0.00 | 0.00 | 38 | 1014.6 |
| 20260505113106 | 52 | 258 | 8.0 | 12.0 | 0.00 | 0.00 | 0.00 | 39 | 1014.6 |
| 20260505112539 | 52 | 283 | 7.0 | 12.0 | 0.00 | 0.00 | 0.00 | 39 | 1014.5 |
| 20260505112038 | 52 | 273 | 7.0 | 12.0 | 0.00 | 0.00 | 0.00 | 39 | 1014.6 |
| 20260505111545 | 52 | 277 | 7.0 | 9.0 | 0.00 | 0.00 | 0.00 | 38 | 1014.8 |
| 20260505111039 | 53 | 261 | 6.0 | 12.0 | 0.00 | 0.00 | 0.00 | 37 | 1014.9 |
| 20260505110538 | 53 | 277 | 6.0 | 13.0 | 0.00 | 0.00 | 0.00 | 37 | 1014.9 |
| 20260505102038 | 53 | 337 | 3.0 | 5.0 | 0.00 | 0.00 | 0.00 | 36 | 1014.7 |
| 20260505101545 | 53 | 349 | 3.0 | 10.0 | 0.00 | 0.00 | 0.00 | 35 | 1014.7 |
| 20260505101038 | 54 | 10 | 5.0 | 10.0 | 0.00 | 0.00 | 0.00 | 35 | 1014.7 |
| 20260505100538 | 54 | 19 | 5.0 | 14.0 | 0.00 | 0.00 | 0.00 | 34 | 1014.7 |
| 20260505100052 | 54 | 5 | 6.0 | 14.0 | 0.00 | 0.00 | 0.00 | 33 | 1014.7 |
| 20260505095538 | 54 | 9 | 9.0 | 10.0 | 0.00 | 0.00 | 0.00 | 32 | 1014.6 |
| 20260505095037 | 54 | 13 | 7.0 | 11.0 | 0.00 | 0.00 | 0.00 | 29 | 1014.6 |
| 20260505094546 | 54 | 19 | 6.0 | 11.0 | 0.00 | 0.00 | 0.00 | 32 | 1014.5 |
| 20260505094038 | 54 | 29 | 6.0 | 10.0 | 0.00 | 0.00 | 0.00 | 33 | 1014.5 |
| 20260505093539 | 54 | 44 | 2.0 | 5.0 | 0.00 | 0.00 | 0.00 | 37 | 1014.7 |
| 20260505093046 | 54 | 61 | 1.0 | 4.0 | 0.00 | 0.00 | 0.00 | 37 | 1014.7 |
| 20260505092539 | 54 | 0 | 0.0 | 5.0 | 0.00 | 0.00 | 0.00 | 37 | 1014.8 |
| 20260505092038 | 54 | 0 | 2.0 | 5.0 | 0.00 | 0.00 | 0.00 | 36 | 1015.0 |
| 20260505091607 | 55 | 53 | 3.0 | 9.0 | 0.00 | 0.00 | 0.00 | 36 | 1015.0 |
| 20260505091038 | 55 | 5 | 2.0 | 9.0 | 0.00 | 0.00 | 0.00 | 36 | 1015.0 |
| 20260505090538 | 54 | 334 | 5.0 | 8.0 | 0.00 | 0.00 | 0.00 | 37 | 1014.9 |
| 20260505090049 | 54 | 13 | 3.0 | 8.0 | 0.00 | 0.00 | 0.00 | 37 | 1014.9 |
| 20260505085541 | 55 | 21 | 4.0 | 10.0 | 0.00 | 0.00 | 0.00 | 36 | 1014.8 |
| 20260505085038 | 55 | 32 | 7.0 | 10.0 | 0.00 | 0.00 | 0.00 | 36 | 1014.9 |
| 20260505084549 | 55 | 38 | 6.0 | 8.0 | 0.00 | 0.00 | 0.00 | 36 | 1014.9 |
| 20260505084037 | 55 | 29 | 5.0 | 9.0 | 0.00 | 0.00 | 0.00 | 35 | 1015.0 |
| 20260505083537 | 55 | 9 | 5.0 | 9.0 | 0.00 | 0.00 | 0.00 | 35 | 1015.0 |
| 20260505083051 | 56 | 19 | 4.0 | 12.0 | 0.00 | 0.00 | 0.00 | 34 | 1014.7 |
| 20260505082537 | 56 | 20 | 9.0 | 15.0 | 0.00 | 0.00 | 0.00 | 34 | 1014.9 |
| 20260505082039 | 56 | 5 | 11.0 | 15.0 | 0.00 | 0.00 | 0.00 | 34 | 1015.0 |
| 20260505081600 | 56 | 9 | 4.0 | 9.0 | 0.00 | 0.00 | 0.00 | 33 | 1014.9 |
| 20260505081038 | 57 | 349 | 0.0 | 2.0 | 0.00 | 0.00 | 0.00 | 32 | 1015.1 |
| 20260505080537 | 57 | 340 | 0.0 | 4.0 | 0.00 | 0.00 | 0.00 | 32 | 1015.3 |
| 20260505075539 | 57 | 304 | 3.0 | 11.0 | 0.00 | 0.00 | 0.00 | 32 | 1015.4 |
| 20260505075038 | 57 | 325 | 5.0 | 12.0 | 0.00 | 0.00 | 0.00 | 32 | 1015.2 |
| 20260505074548 | 57 | 329 | 6.0 | 12.0 | 0.00 | 0.00 | 0.00 | 31 | 1015.2 |
| 20260505074038 | 57 | 286 | 6.0 | 12.0 | 0.00 | 0.00 | 0.00 | 31 | 1015.4 |
| 20260505073538 | 57 | 297 | 6.0 | 18.0 | 0.00 | 0.00 | 0.00 | 32 | 1015.4 |
| 20260505073048 | 57 | 300 | 7.0 | 18.0 | 0.00 | 0.00 | 0.00 | 31 | 1015.3 |
| 20260505072538 | 57 | 280 | 8.0 | 15.0 | 0.00 | 0.00 | 0.00 | 32 | 1015.2 |
| 20260505072038 | 57 | 267 | 10.0 | 14.0 | 0.00 | 0.00 | 0.00 | 32 | 1015.2 |
| 20260505071554 | 58 | 272 | 11.0 | 14.0 | 0.00 | 0.00 | 0.00 | 31 | 1015.2 |
| 20260505071038 | 58 | 281 | 9.0 | 17.0 | 0.00 | 0.00 | 0.00 | 31 | 1015.1 |
| 20260505070538 | 58 | 300 | 12.0 | 20.0 | 0.00 | 0.00 | 0.00 | 31 | 1014.9 |
| 20260505070047 | 58 | 280 | 14.0 | 20.0 | 0.00 | 0.00 | 0.00 | 31 | 1014.8 |
| 20260505065539 | 58 | 288 | 17.0 | 20.0 | 0.00 | 0.00 | 0.00 | 31 | 1014.6 |
| 20260505065038 | 58 | 264 | 13.0 | 21.0 | 0.00 | 0.00 | 0.00 | 31 | 1014.5 |
| 20260505064542 | 58 | 259 | 16.0 | 22.0 | 0.00 | 0.00 | 0.00 | 31 | 1014.4 |
| 20260505064041 | 58 | 258 | 15.0 | 22.0 | 0.00 | 0.00 | 0.00 | 31 | 1014.3 |
| 20260505063538 | 58 | 236 | 15.0 | 20.0 | 0.00 | 0.00 | 0.00 | 31 | 1014.4 |
| 20260505063104 | 58 | 251 | 16.0 | 20.0 | 0.00 | 0.00 | 0.00 | 31 | 1014.4 |
| 20260505062538 | 57 | 261 | 16.0 | 21.0 | 0.00 | 0.00 | 0.00 | 31 | 1014.6 |
| 20260505062039 | 57 | 265 | 16.0 | 21.0 | 0.00 | 0.00 | 0.00 | 31 | 1014.7 |
| 20260505061610 | 57 | 260 | 16.0 | 19.0 | 0.00 | 0.00 | 0.00 | 31 | 1014.7 |
| 20260505061038 | 57 | 252 | 15.0 | 19.0 | 0.00 | 0.00 | 0.00 | 31 | 1014.7 |
| 20260505060539 | 57 | 266 | 15.0 | 19.0 | 0.00 | 0.00 | 0.00 | 31 | 1014.7 |
| 20260505060055 | 57 | 258 | 13.0 | 17.0 | 0.00 | 0.00 | 0.00 | 31 | 1014.8 |
| 20260505055538 | 58 | 250 | 14.0 | 17.0 | 0.00 | 0.00 | 0.00 | 30 | 1014.9 |
| 20260505055041 | 58 | 265 | 14.0 | 18.0 | 0.00 | 0.00 | 0.00 | 30 | 1015.1 |
| 20260505054548 | 57 | 262 | 15.0 | 18.0 | 0.00 | 0.00 | 0.00 | 30 | 1015.0 |
| 20260505054039 | 57 | 252 | 14.0 | 18.0 | 0.00 | 0.00 | 0.00 | 31 | 1014.9 |
| 20260505053539 | 57 | 242 | 10.0 | 13.0 | 0.00 | 0.00 | 0.00 | 31 | 1014.9 |
| 20260505053046 | 57 | 257 | 10.0 | 12.0 | 0.00 | 0.00 | 0.00 | 31 | 1015.1 |
| 20260505052538 | 57 | 260 | 9.0 | 12.0 | 0.00 | 0.00 | 0.00 | 31 | 1015.0 |
| 20260505052040 | 58 | 249 | 8.0 | 11.0 | 0.00 | 0.00 | 0.00 | 31 | 1015.1 |
| 20260505051606 | 58 | 249 | 8.0 | 11.0 | 0.00 | 0.00 | 0.00 | 30 | 1015.1 |
| 20260505051039 | 58 | 254 | 9.0 | 11.0 | 0.00 | 0.00 | 0.00 | 30 | 1015.1 |
| 20260505050538 | 58 | 261 | 8.0 | 10.0 | 0.00 | 0.00 | 0.00 | 30 | 1015.1 |
| 20260505041548 | 60 | 294 | 7.0 | 12.0 | 0.00 | 0.00 | 0.00 | 28 | 1015.1 |
| 20260505041038 | 60 | 291 | 8.0 | 16.0 | 0.00 | 0.00 | 0.00 | 28 | 1015.1 |
| 20260505040542 | 61 | 289 | 8.0 | 16.0 | 0.00 | 0.00 | 0.00 | 28 | 1015.2 |
| 20260505040045 | 61 | 284 | 11.0 | 16.0 | 0.00 | 0.00 | 0.00 | 27 | 1015.1 |
| 20260505035538 | 61 | 292 | 7.0 | 17.0 | 0.00 | 0.00 | 0.00 | 27 | 1015.0 |
| 20260505035038 | 61 | 309 | 11.0 | 17.0 | 0.00 | 0.00 | 0.00 | 27 | 1014.7 |
| 20260505034539 | 62 | 290 | 12.0 | 18.0 | 0.00 | 0.00 | 0.00 | 26 | 1014.6 |
| 20260505034038 | 62 | 282 | 12.0 | 23.0 | 0.00 | 0.00 | 0.00 | 26 | 1014.6 |
| 20260505033538 | 62 | 284 | 12.0 | 23.0 | 0.00 | 0.00 | 0.00 | 26 | 1014.5 |
| 20260505033044 | 62 | 296 | 11.0 | 20.0 | 0.00 | 0.00 | 0.00 | 26 | 1014.3 |
| 20260505032537 | 62 | 298 | 13.0 | 20.0 | 0.00 | 0.00 | 0.00 | 25 | 1014.4 |
| 20260505032037 | 63 | 300 | 14.0 | 23.0 | 0.00 | 0.00 | 0.00 | 25 | 1014.3 |
| 20260505031552 | 63 | 276 | 14.0 | 23.0 | 0.00 | 0.00 | 0.00 | 25 | 1014.2 |
| 20260505031038 | 63 | 293 | 12.0 | 22.0 | 0.00 | 0.00 | 0.00 | 24 | 1014.1 |
| 20260505030541 | 63 | 297 | 11.0 | 22.0 | 0.00 | 0.00 | 0.00 | 25 | 1014.2 |
| 20260505030040 | 63 | 273 | 11.0 | 17.0 | 0.00 | 0.00 | 0.00 | 25 | 1014.1 |
| 20260505025627 | 63 | 302 | 9.0 | 22.0 | 0.00 | 0.00 | 0.00 | 25 | 1014.1 |
| 20260505025039 | 63 | 285 | 11.0 | 22.0 | 0.00 | 0.00 | 0.00 | 25 | 1014.1 |
| 20260505024548 | 64 | 302 | 12.0 | 23.0 | 0.00 | 0.00 | 0.00 | 25 | 1014.1 |
| 20260505024038 | 64 | 293 | 13.0 | 23.0 | 0.00 | 0.00 | 0.00 | 24 | 1014.0 |
| 20260505023538 | 64 | 303 | 14.0 | 23.0 | 0.00 | 0.00 | 0.00 | 25 | 1014.0 |
| 20260505023048 | 64 | 299 | 13.0 | 23.0 | 0.00 | 0.00 | 0.00 | 24 | 1013.9 |
| 20260505022542 | 64 | 289 | 8.0 | 25.0 | 0.00 | 0.00 | 0.00 | 25 | 1014.1 |
| 20260505022042 | 64 | 283 | 12.0 | 25.0 | 0.00 | 0.00 | 0.00 | 24 | 1014.0 |
| 20260505021551 | 65 | 317 | 10.0 | 20.0 | 0.00 | 0.00 | 0.00 | 24 | 1014.0 |
| 20260505021042 | 65 | 280 | 11.0 | 23.0 | 0.00 | 0.00 | 0.00 | 23 | 1014.0 |
| 20260505020541 | 65 | 273 | 14.0 | 23.0 | 0.00 | 0.00 | 0.00 | 23 | 1014.0 |
| 20260505020059 | 65 | 307 | 15.0 | 26.0 | 0.00 | 0.00 | 0.00 | 23 | 1014.0 |
| 20260505015542 | 65 | 284 | 18.0 | 26.0 | 0.00 | 0.00 | 0.00 | 23 | 1013.9 |
| 20260505015045 | 65 | 289 | 10.0 | 18.0 | 0.00 | 0.00 | 0.00 | 22 | 1014.1 |
| 20260505014551 | 65 | 268 | 11.0 | 18.0 | 0.00 | 0.00 | 0.00 | 22 | 1014.1 |
| 20260505014041 | 65 | 287 | 9.0 | 16.0 | 0.00 | 0.00 | 0.00 | 22 | 1013.9 |